7 * 24
多渠道服务支持
STARLINK-32575 是 SpaceX Starlink 卫星互联网项目中的一颗低轨卫星,属于“星链”计划的组成部分。该卫星由 SpaceX 研制并发射,旨在为全球用户提供高速互联网服务。它运行在近地轨道,与其他 Starlink 卫星协同工作,提升网络覆盖与连接质量。该计划致力于改善偏远地区的网络接入,同时支持各类商业与民用通信需求。
美国
(US)
| 数据来源 | 国际轨道数据 |
| 星历时间: | 2025-12-20T01:42:48+0800 16小时前 查看轨道信息 |
| 半长轴: | 6950.173km |
| 偏心率: | 0.0002785 |
| 轨道倾角: | 70.002° |
| 近地点辐角 | 288.813° |
| 升交点赤经 | 355.851° |
| 平近点角 | 71.273° |
| 近地点: | 570.1km |
| 远地点: | 573.972km |
| 周期: | 96.107分钟 |
| 每日圈数: | 14.983366 |